Погода в Пристенном

Россия / Курская область     51°12′20″N   36°49′31″E
темп.,
°C
ветер,
м/с
пор.,
м/с
влажн.,
%
обл.,
%
осадки,
мм/ч
давл.,
гПа
погр.,
м
19 января, вт
вт1900:00−17св2297100 0.1 101831
03:00−17ссв2297100 0.2 101854
06:00−17с2297100 0.3 101871
09:00−18с239797 0.4 101982
12:00−16с2293100 0.3 1019231
15:00−16сз3495100 0.3 1018276
18:00−20сз239888 0.0 102020
21:00−22сз239861 0.0 102120
20 января, ср
ср2000:00−22зсз239733 0.0 102220
03:00−22зсз239821 0.0 102322
06:00−22зсз239813 0.0 102321
09:00−22з22989 0.0 102520
12:00−18з23940 0.0 1025155
15:00−16зюз249419 0.0 1025223
18:00−19зюз22980 0.0 102720
21:00−19юз23970 0.0 102720
21 января, чт
чт2100:00−19ююз33960 0.0 102827
03:00−19ююз34970 0.0 102866
06:00−19ю47970 0.0 1027112
09:00−18ю510920 0.0 1027168
12:00−13ююз612890 0.0 1026278
15:00−10ююз7139433 0.1 1024407
18:00−6ююз71493100 0.1 1022525
21:00−3юз61494100 0.1 1021613
22 января, пт
пт2200:000юз71493100 0.0 1020682
03:000юз71492100 0.0 1020688
06:00+1юз61392100 0.0 1018603
09:00+1юз61293100 0.0 1018549
12:00+1юз71295100 0.0 1018551
15:00+1юз71399100 0.0 1017542
18:00+1юз71397100 0.0 1017540
21:00+1ююз71396100 0.0 1017545
23 января, сб
сб2300:00+1ююз61496100 0.0 1016483
03:00+1ююз61396100 0.0 1016440
06:00+1ююз61397100 0.0 1015410
09:00+2ю61497100 0.0 1015452
12:00+2ююз714100100 0.0 1014445
15:00+2ююз61499100 0.0 1013422
18:00+2ююз61498100 0.0 1013383
21:00+3ююз61399100 0.0 1013326